Dewpoint
75 75 75 76 76 77 76 76 76 78 79 78 79 78 78 77 78 78 77 74 73 71 68 63 61 61 62 63 63 62 60 60 57 60 60 62 61 61 61 60 60 56 57
75 76 75 76 76 76 76 75 76 77 78 78 79 79 79 78 78 79 77 73 72 70 65 63 59 59 66 64 61 64 63 61 60 58 59 61 60 61 60 60 59 55 56
74 75 76 77 77 77 78 77 77 76 77 76 77 78 78 78 77 79 77 74 72 68 65 62 58 64 64 64 64 62 61 60 61 57 57 59 59 60 59 59 59 57 55
73 75 76 76 77 77 79 79 78 78 76 76 77 78 78 78 77 79 76 73 72 67 64 60 60 64 63 63 61 61 62 59 59 55 56 55 56 59 59 57 54 55 55
74 74 75 76 77 77 77 78 77 77 76 76 76 76 78 76 72 78 76 73 70 66 62 61 61 60 60 60 56 59 60 57 57 55 55 54 53 54 57 57 53 53 54
75 74 76 77 77 77 77 77 77 77 77 77 76 75 75 70 64 69 74 72 69 65 62 61 60 58 59 59 59 59 58 57 58 56 54 54 55 55 57 55 54 52 51
76 76 77 78 77 78 78 77 77 77 78 77 77 75 74 75 66 67 69 71 68 63 63 60 60 53 57 57 58 59 59 59 59 58 55 54 55 56 57 54 53 52 52
75 75 77 78 77 78 78 78 78 78 78 78 78 77 76 74 64 64 66 71 69 62 62 61 61 59 60 61 61 57 57 57 58 56 56 55 56 57 58 55 53 53 53
74 76 76 76 76 77 77 78 78 79 79 78 78 78 76 76 62 62 68 71 66 62 62 63 61 62 57 55 60 61 57 56 56 56 55 55 56 57 56 54 52 49 50
74 74 77 77 77 77 78 78 79 79 79 77 78 78 72 77 59 59 67 71 64 60 63 65 61 62 55 53 62 60 60 59 57 57 57 57 58 56 57 57 55 51 49
73 75 77 78 78 79 79 80 79 79 78 78 78 78 77 76 67 57 59 71 64 61 57 60 59 54 52 51 52 62 61 61 58 60 58 56 55 55 57 57 55 55 52
72 74 76 77 76 75 79 80 79 79 79 78 77 77 76 78 65 57 57 59 63 62 59 58 57 51 49 49 53 50 50 53 61 59 55 55 54 56 56 56 57 56 56
72 75 76 76 77 78 80 79 79 79 79 76 77 74 75 77 70 59 54 56 57 63 61 58 52 47 48 50 51 50 51 55 58 58 55 55 55 56 57 56 55 55 56
71 71 72 73 71 78 77 79 78 77 76 77 75 75 76 76 72 68 62 59 57 58 56 54 51 50 50 53 53 54 54 56 61 57 56 57 57 56 55 54 53 53 53
68 71 71 69 72 71 71 69 71 67 66 71 71 72 71 74 73 64 62 60 59 58 56 53 51 50 50 54 55 56 56 59 62 59 56 56 56 57 55 56 54 53 52
66 66 67 66 69 70 70 69 54 54 50 48 47 52 68 62 56 53 54 51 51 50 54 56 53 49 50 51 55 55 56 55 62 61 58 57 55 55 55 55 56 53 52
65 65 65 67 68 68 66 66 66 61 53 48 46 46 45 43 48 49 49 49 51 56 61 60 59 56 53 52 54 55 55 55 62 62 60 58 58 55 55 55 55 54 54
64 58 64 66 67 68 69 68 66 66 66 64 50 47 44 44 43 48 49 52 57 58 62 61 61 63 60 63 57 56 57 57 61 62 60 59 56 54 55 54 54 54 54
62 61 63 65 66 65 67 68 68 69 68 64 60 55 50 46 47 46 50 62 59 59 61 61 62 62 61 62 61 60 59 54 56 61 61 59 57 55 56 54 54 52 53
59 59 59 64 62 62 63 63 65 66 65 63 61 61 57 55 59 57 61 62 61 60 61 62 62 62 61 62 62 63 60 53 55 60 60 60 59 57 54 54 53 53 53
56 57 57 60 59 61 59 59 59 61 62 61 59 54 46 61 61 60 61 63 63 63 63 63 63 63 63 62 62 60 57 52 55 55 58 59 58 55 58 56 54 53 53
52 53 53 54 55 55 55 55 55 55 55 55 55 55 48 59 59 60 61 63 64 64 64 63 64 63 64 62 60 57 53 51 52 53 55 56 58 56 57 56 53 53 54
50 49 50 50 51 52 51 49 48 50 50 50 51 50 51 52 51 51 52 52 53 55 62 65 65 64 64 64 63 61 58 53 52 52 54 53 56 55 56 55 53 52 54
47 47 46 47 44 45 46 47 46 45 46 46 46 46 46 46 46 46 47 47 48 47 48 50 52 60 62 62 60 57 51 48 50 54 53 52 53 52 56 55 53 53 54
45 44 43 42 41 41 41 43 42 43 43 43 43 43 43 43 43 43 44 44 44 44 43 44 44 46 47 49 50 49 40 38 42 42 56 53 53 53 52 54 55 53 54
43 43 43 43 42 43 42 42 40 40 40 41 41 42 42 42 43 43 43 42 42 42 42 42 42 41 42 42 40 37 35 36 42 38 56 56 56 56 51 51 53 53 54
Lifted_Index
-6 -6 -6 -6 -6 -6 -6 -5 -5 -6 -6 -7 -7 -7 -7 -8 -8 -9 -8 -7 -6 -6 -5 -2 2 4 3 2 2 2 2 3 3 3 2 2 2 2 2 2 3 4 5
-6 -6 -6 -6 -6 -7 -6 -6 -5 -6 -6 -7 -7 -7 -8 -8 -8 -9 -8 -7 -6 -5 -5 -2 2 3 2 2 2 2 2 2 3 3 3 3 3 2 2 3 3 5 5
-6 -6 -6 -7 -7 -7 -7 -7 -6 -6 -6 -7 -7 -8 -8 -8 -8 -8 -8 -7 -6 -5 -5 -3 1 2 2 2 2 2 2 3 3 4 5 4 4 3 3 3 4 5 5
-6 -6 -7 -7 -7 -7 -7 -7 -7 -7 -6 -6 -7 -7 -8 -8 -7 -8 -8 -7 -6 -5 -5 -3 1 3 3 4 4 3 3 3 4 5 5 5 5 4 4 4 5 6 6
-7 -7 -7 -7 -7 -7 -7 -7 -7 -7 -7 -6 -6 -6 -7 -7 -6 -7 -7 -7 -6 -5 -5 -3 1 5 6 6 6 5 5 5 5 5 6 6 6 6 5 5 6 6 6
-7 -7 -7 -7 -7 -7 -7 -7 -7 -7 -7 -7 -6 -6 -6 -5 -5 -6 -7 -7 -6 -6 -5 -4 1 6 7 7 7 7 6 6 6 6 7 7 7 7 6 6 6 7 6
-8 -8 -8 -8 -8 -8 -8 -8 -8 -8 -7 -7 -7 -6 -5 -5 -5 -6 -6 -6 -6 -5 -5 -4 -0 5 7 6 6 6 7 7 7 7 8 8 8 8 7 7 7 7 7
-8 -8 -8 -8 -8 -8 -8 -8 -8 -8 -8 -8 -7 -6 -5 -5 -5 -6 -6 -6 -5 -5 -5 -5 -1 3 5 5 5 5 6 6 7 8 8 9 9 8 8 8 8 8 8
-8 -8 -8 -8 -8 -8 -9 -9 -9 -9 -8 -8 -7 -7 -6 -5 -5 -5 -6 -6 -5 -5 -5 -5 -2 2 5 5 5 5 5 6 7 7 8 9 9 9 9 9 9 9 9
-8 -8 -9 -9 -9 -9 -9 -9 -9 -9 -9 -8 -7 -7 -6 -6 -6 -6 -6 -5 -5 -4 -4 -4 -3 1 5 6 5 4 4 5 6 6 7 8 9 9 9 9 9 9 9
-8 -8 -9 -9 -9 -9 -9 -9 -10 -9 -9 -8 -7 -7 -7 -7 -6 -6 -5 -5 -5 -4 -3 -4 -3 1 5 7 6 5 5 5 5 6 7 8 9 10 9 9 9 10 9
-8 -8 -9 -9 -9 -9 -9 -10 -10 -10 -9 -9 -8 -7 -7 -7 -7 -6 -6 -5 -5 -4 -3 -3 -3 1 6 8 8 7 6 5 5 5 7 8 9 10 10 10 10 10 10
-7 -8 -8 -8 -8 -9 -9 -9 -9 -10 -9 -9 -8 -8 -7 -7 -7 -6 -6 -5 -5 -4 -4 -3 -3 0 6 9 9 8 6 5 4 5 6 8 9 9 10 10 10 10 10
-7 -7 -7 -7 -8 -8 -8 -8 -8 -8 -8 -8 -7 -7 -7 -7 -7 -6 -6 -5 -5 -4 -4 -3 -3 -1 3 7 9 8 7 5 4 4 6 7 8 9 9 10 10 9 9
-5 -6 -6 -6 -7 -7 -6 -6 -6 -6 -6 -5 -5 -5 -5 -5 -6 -6 -5 -5 -5 -5 -4 -4 -3 -2 -0 4 7 8 7 5 4 4 5 6 7 8 9 9 9 9 9
-4 -5 -5 -5 -6 -6 -5 -5 -4 -3 -3 -3 -2 -2 -2 -3 -4 -5 -5 -5 -4 -4 -4 -3 -3 -3 -2 1 5 7 7 6 4 4 5 5 6 7 8 9 9 9 8
-3 -4 -4 -5 -5 -5 -4 -4 -3 -3 -2 -2 -1 -1 -1 -1 -2 -3 -4 -4 -4 -3 -3 -3 -3 -2 -1 1 5 6 7 6 5 4 4 5 6 6 7 8 8 8 8
-3 -3 -4 -4 -5 -5 -4 -4 -4 -3 -3 -2 -1 -0 0 -1 -1 -2 -2 -3 -2 -2 -1 -1 -1 -1 -0 2 4 6 6 6 5 4 4 5 5 6 6 7 8 8 8
-3 -3 -4 -4 -4 -4 -4 -4 -4 -4 -3 -2 -1 0 1 1 0 -0 -1 -1 -1 -0 -0 -0 -0 -0 1 2 4 5 6 6 6 4 4 4 5 6 5 6 7 7 7
-2 -3 -3 -4 -4 -4 -4 -4 -4 -3 -3 -2 -0 1 2 2 2 1 -0 -1 -0 -0 -0 -0 -0 -0 1 2 3 5 6 7 7 5 4 4 5 5 5 5 6 6 7
-2 -3 -3 -3 -4 -3 -3 -3 -3 -3 -3 -2 -1 0 1 1 1 0 -1 -1 -1 -1 -1 -0 -0 0 0 2 4 5 6 7 7 6 4 4 5 5 5 5 5 6 6
-2 -2 -3 -3 -3 -3 -2 -2 -2 -2 -3 -3 -2 -1 -1 -1 -1 -1 -1 -1 -1 -1 -1 -0 1 1 1 2 5 6 7 8 8 7 5 5 4 5 5 5 6 5 5
-1 -2 -2 -2 -2 -2 -2 -1 -1 -2 -2 -2 -2 -2 -1 -1 -1 -1 -1 -0 -0 0 1 1 2 2 2 3 6 8 8 8 8 7 6 5 5 5 5 5 6 6 5
-1 -1 -2 -2 -2 -2 -2 -1 -1 -1 -1 -1 -1 -1 -1 -1 -0 -0 0 1 1 2 2 2 3 3 3 4 7 8 8 8 7 7 7 6 5 5 5 5 6 6 5
-0 -1 -1 -1 -1 -1 -1 -1 -1 -1 -0 -0 0 0 1 1 1 1 1 2 2 3 3 3 3 3 3 5 7 8 8 8 8 8 7 7 6 5 5 5 5 5 5
0 -0 -1 -1 -1 -1 -1 -1 -1 -0 -0 -0 0 1 1 1 1 2 2 2 3 4 4 4 4 4 4 5 7 8 8 8 8 8 8 7 6 6 6 6 6 5 5